User: anonymous   Login
Location: Pine Mountain Observatory
(43.7910°N, 120.9377°W)
Time: 10:29:27
(UTC-07:00)
Language:

APEX - Orbit

View from above orbital plane
View from above orbital plane
View from above satellite
View from above satellite

Ground track
Ground track

The orbit data is extracted from the following two-line orbital elements,

1 23191U 94046A   14297.10093939  .00026387  00000-0  10679-2 0   370
2 23191 069.9192 260.6810 0724896 127.8179 313.4752 14.08003814978646
Epoch (UTC): 24 October 2014 02:25:21
Eccentricity: 0.0724896
inclination: 69.9192°
perigee height: 341 km
apogee height: 1391 km
right ascension of ascending node: 260.6810°
argument of perigee: 127.8179°
revolutions per day: 14.08003814
mean anomaly at epoch: 313.4752°
orbit number at epoch: 97864

The dashed part of the orbit path shows where the satellite is in the earth's shadow,  

DLR